Content
SEND FEEDBACK

Daily
Averages
Monthly
Summary
United States of America

MONTEREY, LOUISIANA


Home > North America > United States > Louisiana
Elevation: 20 meters     Latitude: 31 29N     Longitude: 091 51W

WEATHER
 
SELECT A DAY
Number of Records: 222,346;   Date Range: 1/1/95 - 10/22/14
 
SHARE

PRINT THIS DATA

[ ← Previous Day ]
WEATHER ALMANAC - 13 FEBRUARY, 2013
[ Next Day → ]
[ °F ]   °C
Weather ElementAverageHighLow
Temperature9.5 °C13.9 °C (3:53 pm)2.2 °C (11:53 pm)
Dewpoint5.1 °C9 °C (12:31 am)1.1 °C (11:53 pm)
Humidity76 %94 % (12:31 am)49 % (2:53 pm)
Barometer1016.3 hPa1019 hPa (8:53 pm)1012.5 hPa (12:31 am)
Wind Speed7.9 km/h18.5 km/h (4:38 am)
Wind Gust31.5 km/h (4:53 am)
Weather ElementAverage
Visibility15.6 km
Wind DirectionSSE (155.7 °)

Weather ElementTotal
Precipitation0.51 mm
Heating Degree Days10.3 (Base 18.3)
Averaged from 35 records on 13 February, 2013
WEATHER CONDITIONS BREAKOUT
WIND DIRECTION BREAKOUT
WEATHER BY HOUR - 13 FEBRUARY, 2013
[ °F ]   °C
Local TimeTemperatureDewpointHumidityBarometerVisibilityWind DirectionWind SpeedGust SpeedPrecipitationEventsConditions
12:31 AM10 °C9 °C94 %1012.5 hPa16.1 kmCalmOvercast
12:44 AM11 °C9 °C88 %1012.5 hPa16.1 kmCalmOvercast
12:53 AM10.6 °C8.9 °C89 %1012.9 hPa16.1 kmCalmOvercast
1:22 AM11 °C9 °C88 %1013.2 hPa16.1 kmVariable7.4 km/hOvercast
1:34 AM11 °C9 °C88 %1013.2 hPa16.1 kmWSW (250°)7.4 km/hOvercast
1:53 AM10.6 °C8.9 °C89 %1013.2 hPa16.1 kmWest (260°)5.6 km/hMostly Cloudy
2:53 AM10.6 °C8.9 °C89 %1013.5 hPa16.1 kmWest (280°)11.1 km/hMostly Cloudy
3:01 AM11 °C9 °C88 %1013.9 hPa16.1 kmWNW (290°)7.4 km/hScattered Clouds
3:53 AM10.6 °C8.3 °C86 %1013.9 hPa16.1 kmWest (280°)7.4 km/hMostly Cloudy
4:38 AM10 °C7 °C82 %1014.6 hPa16.1 kmNW (310°)18.5 km/h29.6 km/hOvercast
4:53 AM10 °C6.7 °C80 %1014.6 hPa16.1 kmWNW (290°)13 km/h31.5 km/hOvercast
5:53 AM8.9 °C4.4 °C74 %1015.6 hPa16.1 kmWNW (300°)11.1 km/hOvercast
6:01 AM9 °C4 °C71 %1015.6 hPa16.1 kmWNW (300°)11.1 km/hOvercast
6:53 AM8.3 °C4.4 °C77 %1015.9 hPa16.1 kmNW (310°)7.4 km/hMostly Cloudy
7:00 AM8 °C4 °C76 %1015.6 hPa16.1 kmWNW (300°)7.4 km/hScattered Clouds
7:53 AM8.9 °C4.4 °C74 %1017.6 hPa16.1 kmWNW (300°)7.4 km/hMostly Cloudy
8:53 AM8.9 °C5 °C77 %1018.3 hPa16.1 kmWNW (300°)11.1 km/hClear
9:53 AM11.1 °C5 °C66 %1017.9 hPa16.1 kmNW (310°)14.8 km/hScattered Clouds
10:01 AM11 °C4 °C62 %1017.9 hPa16.1 kmVariable11.1 km/hMostly Cloudy
10:46 AM12 °C4 °C58 %1017.9 hPa16.1 kmNorth (350°)16.7 km/h27.8 km/h0.25 mmMostly Cloudy
10:53 AM11.1 °C3.9 °C61 %1017.9 hPa16.1 kmNW (320°)14.8 km/h27.8 km/h0.25 mmOvercast
11:53 AM12.2 °C2.8 °C53 %1017.3 hPa16.1 kmNorth (10°)14.8 km/h27.8 km/hMostly Cloudy
12:53 PM12.8 °C3.3 °C53 %1016.6 hPa16.1 kmVariable11.1 km/h29.6 km/hMostly Cloudy
1:53 PM13.3 °C3.3 °C51 %1016.6 hPa16.1 kmWNW (300°)18.5 km/h27.8 km/hScattered Clouds
2:53 PM13.3 °C2.8 °C49 %1016.6 hPa16.1 kmNorth (360°)13 km/hPartly Cloudy
3:53 PM13.9 °C3.3 °C49 %1016.6 hPa16.1 kmNorth (10°)13 km/hMostly Cloudy
4:53 PM12.8 °C2.8 °C51 %1016.9 hPa16.1 kmNNE (20°)14.8 km/hMostly Cloudy
5:53 PM10.6 °C3.3 °C61 %1017.6 hPa16.1 kmCalmScattered Clouds
6:53 PM7.2 °C5 °C86 %1017.9 hPa16.1 kmCalmClear
7:53 PM5.6 °C3.9 °C89 %1018.3 hPa16.1 kmCalmClear
8:53 PM3.9 °C2.8 °C93 %1019 hPa16.1 kmCalmClear
9:53 PM3.9 °C2.2 °C89 %1019 hPa3.2 kmCalmClear
10:06 PM4 °C3 °C93 %1019 hPa14.5 kmCalmClear
10:53 PM3.3 °C2.2 °C93 %1019 hPa16.1 kmCalmClear
11:53 PM2.2 °C1.1 °C93 %1019 hPa16.1 kmCalmClear
Hourly data recorded from KESF, located 0 kilometers away from Monterey, Louisiana







STORIES FROM OUR PARTNERS